www.pogodaiklimat.ru

Погода и климат >> Архив погоды >> Россия >> Ямало-Ненецкий АО >> Мужи


ПОГОДА в Мужах

  • Прогноз погоды в Мужах
  • Монитор погоды в Мужах

АРХИВ ПОГОДЫ в Мужах

Время (UTC), дата Ветер
(напр.,м/с)
 
Видим.   Явления Облачность Т
(С)
Тd
(С)
f
(%)
Тe
(С)
Тes
(С)
Комфортность P
(гПа)
Po
(гПа)
Тmin
(С)
Tmax
(С)
R
(мм)
R24
(мм)
S
(см)
21 16.05 СЗ 4 17 км слаб. дождь 10/3 300 м
[Frnb As op]
+2.4 +1.4 93 -3 -3 1011.3 1008.9
00 17.05 СЗ 4 11 км слаб. дождь 10/5 300 м
[Frnb As op]
+1.6 +1.3 98 -4 -4 1009.4 1007.1
03 17.05 С 3 14 км слаб. дождь 10/6 300 м
[Frnb As op]
+1.6 +1.5 99 -3 -3 1007.4 1005.1 +1.5 3
06 17.05 С 3 14 км слаб. дождь 10/6 300 м
[Frnb As op]
+2.7 +2.5 99 -2 -1 1005.6 1003.3
09 17.05 СЗ 2 12 км слаб. дождь 10/6 300 м
[Frnb As op]
+4.0 +4.0 100 +1 +2 1003.9 1001.6
12 17.05 С 1 13 км слаб. дождь 10/8 300 м
[Frnb As op]
+4.4 +4.4 100 +3 +3 1003.0 1000.7
15 17.05 СВ 3 10 км слаб. дождь 10/8 300 м
[Frnb As op]
+4.3 +4.3 100 0 0 1001.7 999.4 +4.6 11
18 17.05 СВ 3 11 км слаб. дождь 10/6 300 м
[Frnb As op]
+3.0 +2.9 99 -1 -1 999.9 997.6
21 17.05 СВ 4 9000 м слаб. дождь 10/5 300 м
[Frnb As op]
+1.6 +1.5 99 -4 -4 997.4 995.1
00 18.05 С 4 7000 м слаб. снег {дождь} 10/5 300 м
[Frnb As op]
+0.4 +0.4 100 -5 -5 995.5 993.2
03 18.05 С 3 6000 м слаб. снег 10/8 300 м
[Frnb As op]
+0.6 +0.6 100 -4 -4 994.6 992.3 +0.3 13 2
06 18.05 СВ 2 10 км слаб. дождь 10/8 300 м
[Frnb As op]
+2.2 +2.2 100 -1 -1 995.1 992.8
09 18.05 В 2 4100 м слаб. морось {дождь} 10/10 300 м
[St]
+4.6 +4.6 100 +2 +2 996.6 994.4
12 18.05 штиль 0 45 км {дождь, морось} 10/10 300 м
[St]
+5.8 +4.4 91 +5 +5 998.6 996.3
15 18.05 СВ 4 12 км слаб. дождь 10/8 300 м
[Frnb As op]
+4.0 +3.8 99 -1 -1 999.9 997.6 +6.1 3
18 18.05 СВ 5 15 км слаб. дождь 10/8 300 м
[Frnb As op]
+3.1 +2.8 98 -2 -2 1000.6 998.3
21 18.05 СВ 5 15 км слаб. дождь 10/8 300 м
[Frnb As op]
+2.6 +2.3 98 -3 -3 1001.1 998.8
00 19.05 С 8-12
{12}
>70 км {дождь} 10/0
[As op]
+0.9 +0.1 94 -7 -7 1002.7 1000.3
03 19.05 СВ 9-13
{14}
40 км 3/3 600 м
[Cu hum]
+2.4 +0.2 85 -5 -4 1003.1 1000.8 +0.8 5
06 19.05 СВ 9-13
{15}
>70 км 6/6 600 м
[Cu hum]
+5.5 +1.1 73 -0 0 1003.1 1000.8
09 19.05 СВ 10-15
{17}
>70 км 10/0
[As op]
+5.1 -0.8 66 -1 -1 1004.1 1001.8
12 19.05 СВ 10-17
{19}
17 км слаб. дождь 10/0
[As op]
+3.4 +0.4 81 -4 -4 1004.5 1002.2
15 19.05 СЗ 6
{17}
15 км слаб. дождь 10/0
[As op]
+2.8 +0.4 84 -3 -3 1005.2 1002.9 +6.7 1
18 19.05 С 7-13
{17}
15 км слаб. дождь 10/6 300 м
[Frnb As op]
+1.6 +0.3 91 -5 -5 1004.8 1002.5
21 19.05 С 7-12
{14}
8000 м слаб. снег {дождь} 10/8 300 м
[Frnb As op]
+0.8 +0.5 98 -6 -6 1004.0 1001.7
00 20.05 С 6-11
{14}
7000 м слаб. снег {дождь} 10/8 300 м
[Frnb As op]
+0.8 +0.8 100 -6 -6 1003.7 1001.4
03 20.05 С 6-10
{14}
9000 м слаб. дождь 10/6 300 м
[Frnb As op]
+1.5 +0.7 94 -5 -5 1003.3 1001.0 +0.5 5
06 20.05 С 8-14
{16}
8000 м слаб. дождь 10/6 300 м
[Frnb As op]
+1.8 +1.0 94 -5 -5 1003.5 1001.2
09 20.05 С 9-15
{15}
8000 м слаб. снег {дождь} 10/5 300 м
[Frnb As op]
+2.0 +1.0 93 -5 -5 1004.9 1002.6
12 20.05 С 7-10
{15}
11 км слаб. снег {дождь} 10/4 300 м
[Frnb As op]
+1.4 +1.0 97 -6 -5 1006.5 1004.2
15 20.05 СВ 5-10
{12}
60 км {снег} 10/0
[As op]
+2.2 +0.4 88 -3 -3 1007.3 1005.0 +2.7 5
18 20.05 С 5
{12}
60 км {снег} 9/6 300 м
[St As op]
+0.4 -0.9 91 -6 -6 1008.4 1006.1
21 20.05 С 7-11
{13}
50 км 8/3 600 м
[Cu hum Ac trans]
-0.7 -2.8 86 -8 -8 1008.7 1006.4
00 21.05 С 9-12
{13}
>70 км 6/0
[Ac trans Ci fib]
-1.2 -3.9 82 -9 -9 1009.6 1007.2
03 21.05 СВ 8-11
{12}
>70 км 4/0
[Ci fib]
+0.9 -5.2 64 -6 -5 1010.7 1008.4 -1.4
06 21.05 С 9-14
{14}
>70 км 4/0
[Ci fib]
+3.3 -7.2 46 -3 -2 1011.8 1009.5
09 21.05 СВ 6
{14}
>70 км 4/0
[Ci fib]
+4.9 -4.9 49 0 +4 1012.7 1010.4
12 21.05 СВ 3
{14}
>70 км 4/0
[Ci fib]
+5.8 -4.1 49 +3 +7 1013.3 1011.1
15 21.05 С 3 >70 км 5/0
[Ci fib]
+5.7 -4.0 50 +3 +4 1013.3 1011.0 +6.2
18 21.05 З 2 >70 км 8/0
[Ci fib]
+0.8 -4.9 66 -2 -2 1012.8 1010.5
21 21.05 СЗ 2 50 км 8/0
[Ci fib]
-0.9 -5.9 69 -4 -4 1012.3 1010.0
00 22.05 штиль 0 >70 км 8/0
[Ci fib]
-1.7 -4.3 82 -3 -2 1011.9 1009.5
03 22.05 В 1 >70 км 8/0
[Ci fib]
+3.1 -3.1 64 +2 +7 1011.2 1008.8 -2.2
06 22.05 СВ 3 >70 км 10/3 600 м
[Cu hum Ci fib]
+4.8 -4.5 51 +2 +7 1010.4 1008.1
09 22.05 С 6 >70 км 10/4 600 м
[Cu hum Ci fib]
+5.7 -3.9 50 +1 +3 1009.5 1007.3
12 22.05 С 7-10
{11}
55 км 10/4 600 м
[Sc Ci fib]
+5.7 -3.4 52 +1 +2 1009.6 1007.3
15 22.05 С 4
{10}
50 км 10/4 600 м
[Cu Sc Ci fib]
+4.1 -4.4 54 0 +1 1009.2 1006.9 +6.5
18 22.05 СЗ 3
{10}
50 км 10/0
[As op]
+0.7 -5.5 63 -3 -3 1009.0 1006.7
21 22.05 С 2 50 км 10/0
[As op]
-0.6 -4.8 73 -4 -4 1007.6 1005.3
00 23.05 С 4 >70 км 10/6 1000 м
[Sc As op Ci fib]
+0.2 -3.0 79 -5 -5 1006.0 1003.6
03 23.05 СВ 3 >70 км 10/6 600 м
[Sc As trans Ci fib]
+1.8 -1.8 77 -2 -2 1004.5 1002.2 -0.6
06 23.05 СВ 3 >70 км 10/10 1000 м
[Sc]
+2.3 -0.9 79 -2 -2 1002.7 1000.4
09 23.05 СВ 3 12 км слаб. дождь 10/3 300 м
[Frnb As op]
+2.5 +0.7 88 -2 -0 1000.7 998.4
12 23.05 С 3 9000 м слаб. снег {дождь} 10/8 300 м
[Frnb As op]
+0.6 +0.6 100 -4 -4 999.2 996.9
15 23.05 С 3 11 км слаб. дождь 10/5 300 м
[Frnb As op]
+1.7 +1.7 100 -3 -3 996.0 993.7 +3.1 8
18 23.05 С 6-10
{11}
7000 м слаб. снег {дождь} 10/8 300 м
[Frnb As op]
+0.5 +0.4 99 -6 -6 992.9 990.6

 

Местоположение метеостанции Мужи (Ямало-Ненецкий АО, Россия): широта 65.38 долгота 64.72 высота над уровнем моря 19 м.

В архиве по умолчанию представлена погода в Мужах за последнюю неделю. Архивные данные за месяц целиком и за предыдущие месяцы, начиная с января 2011 года, Вы можете получить, выбрав интересующий диапазон дат из раскрывающегося списка и нажав кнопку "Ввод!".


*Определитесь, кто Вы:
робот инопланетянин человек

Внимание! Время в таблицах - всемирное. Для получения местного времени необходимо прибавить поправку, которая равна 5 ч.

Смотрите также архив погоды в соседних городах и на ближайших метеорологических станциях:

Погода в Питляре (Ямало-Ненецкий АО, Россия) (75 км)
Погода в Салехарде (Ямало-Ненецкий АО, Россия) (155 км)
Погода в Березово (Ханты-Мансийский АО, Россия) (163 км)
Погода в Харпе (Ямало-Ненецкий АО, Россия) (165 км)
Погода в Елецкой (Коми, Россия) (188 км)
Погода в Полуе (Ямало-Ненецкий АО, Россия) (195 км)
Погода в Петруни (Коми, Россия) (214 км)
Погода в Саранпауле (Ханты-Мансийский АО, Россия) (219 км)
Погода в Казым-Мысе (Ханты-Мансийский АО, Россия) (220 км)
Погода в Казыме (Ханты-Мансийский АО, Россия) (220 км)

Пояснения к столбцам:

Ветер - указаны скорость ветра в м/с - средняя за 10 мин, порывы в срок и между сроками (в фигурных скобках) и направление, откуда дует ветер: С - северный, СВ - северо-восточный, В - восточный, ЮВ - юго-восточный, Ю - южный, ЮЗ - юго-западный, З - западный, СЗ - северо-западный.
Видимость - горизонтальная дальность видимости в метрах или километрах. При видимости от 1 до 10 км при отсутствии осадков обычно наблюдается дымка, при ухудшении видимости до 1 км и менее - туман. В сухую погоду видимость может ухудшаться дымом, пылью или мглою.
Явления - указаны атмосферные явления, наблюдавшиеся в срок или в последний час перед сроком; фигурными скобками обозначены явления, наблюдавшиеся между сроками (за 1-3 часа до срока); квадратными скобками обозначены град или гололедные отложения с указанием их диаметра в мм.
Облачность - указаны через наклонную черту общая и нижняя облачность в баллах и высота нижней границы облаков в метрах; квадратными скобками обозначены формы облаков: Ci - перистые, Cs - перисто-слоистые, Cc - перисто-кучевые, Ac - высококучевые, As - высокослоистые, Sc - слоисто-кучевые, Ns - слоисто-дождевые, Cu - кучевые, Cb - кучево-дождевые. Подробнее классификацию облаков см. в Атласе облаков (PDF).
T - Температура воздуха - температура, измеренная на высоте 2 м над землей.
Td - Температура точки росы - температура, при понижении до которой содержащийся в воздухе водяной пар достигнет насыщения.
f - Относительная влажность воздуха - влажноcть воздуха, измеренная на высоте 2 м над землей.
Te - Эффективная температура - температура, которую ощущает одетый по сезону человек в тени. Характеристика душности погоды. При расчете учитывается влияние влажности воздуха и скорости ветра на теплоощущения человека.
Tes - Эффективная температура на солнце - температура, которую ощущает человек, с поправкой на солнечный нагрев. Характеристика знойности погоды. Зависит от высоты солнца над горизонтом, облачности и скорости ветра. Ночью, в пасмурную погоду, а также при ветре 12 м/с и более поправка равна нулю.
P - Атмосферное давление - приведенное к уровню моря атмосферное давление.
Po - Атмосферное давление - измеренное на уровне метеостанции атмосферное давление.
Tmin - Минимальная температура - минимум температуры воздуха на высоте 2 м над землей.
Tmax - Максимальная температура - максимум температуры воздуха на высоте 2 м над землей.
R - Количество осадков - Количество выпавших осадков за период времени, мм. При наведении курсора мыши на число - период времени, за который выпало указанное количество осадков.
R24 - Количество осадков - Количество выпавших осадков за 24 часа, мм.
S - Снежный покров - Высота снежного покрова, см. При наведении курсора мыши на число - состояние снежного покрова и степень покрытия местности в баллах.